Regional Weather Roundup
Issued by NWS Green Bay, WI

Home | Current Version | Previous Version | Text Only | Print | Product List | Glossary On
Versions: 1 2 3 4 5 6 7 8 9 10 11 12 13 14 15 16 17 18 19 20 21 22 23 24 25 26 27 28 29 30 31 32 33 34 35 36 37 38 39 40 41 42 43 44 45 46 47 48 49 50
000
ASUS43 KGRB 041959
RWRGRB

NORTH-CENTRAL AND NORTHEAST WISCONSIN REGIONAL WEATHER ROUNDUP
NATIONAL WEATHER SERVICE GREEN BAY WI
300 PM CDT MON MAY 04 2015

WIZ005-009-010>012-018-019-042100-
NORTH CENTRAL WISCONSIN

CITY           SKY/WX    TMP DP  RH WIND       PRES   REMARKS
IRONWOOD       SUNNY     61  25  25 NW8       30.18S
MANITOWISH WTR NOT AVBL
ARBOR VITAE    NOT AVBL
EAGLE RIVER    NOT AVBL
LAND O LAKES   NOT AVBL
RHINELANDER    MOSUNNY   64  31  28 CALM      30.18S
PHILLIPS       NOT AVBL
ANTIGO         NOT AVBL
TOMAHAWK       NOT AVBL
MERRILL        NOT AVBL
$$

WIZ013-073-042100-
NORTHEAST WISCONSIN

CITY           SKY/WX    TMP DP  RH WIND       PRES   REMARKS
IRON MOUNTAIN  SUNNY     68  29  23 N14       30.14S
MARINETTE      SUNNY     63  39  42 E12       30.15R
$$

WIZ017-030-035>037-045-042100-
CENTRAL WISCONSIN

CITY           SKY/WX    TMP DP  RH WIND       PRES   REMARKS
MEDFORD        NOT AVBL
WAUSAU         SUNNY     68  32  26 CALM      30.14S
MOSINEE        SUNNY     68  34  28 N6        30.16S
MARSHFIELD     SUNNY     70  33  25 N8        30.16S
WISC RAPIDS    SUNNY     71  30  21 NE6       30.15S
STEVENS POINT  NOT AVBL
WAUPACA        NOT AVBL
SHAWANO        NOT AVBL
CLINTONVILLE   NOT AVBL
$$

WIZ038-039-048-051-042100-
FOX VALLEY

CITY           SKY/WX    TMP DP  RH WIND       PRES   REMARKS
NWS GREEN BAY  SUNNY     74  40  29 N10       30.13R
APPLETON       MOSUNNY   70  39  32 NE8       30.14S
OSHKOSH        MOSUNNY   70  42  36 NE6       30.14R
FOND DU LAC    MOSUNNY   72  43  35 NE8       30.14R
$$

WIZ022-050-052-042100-
EAST CENTRAL WISCONSIN

CITY           SKY/WX    TMP DP  RH WIND       PRES   REMARKS
STURGEON BAY   SUNNY     64  43  45 E10       30.18R
MANITOWOC      NOT AVBL
SHEBOYGAN      MOSUNNY   66  41  40 E12       30.16R
$$

LMZ563-521-522-541>543-042100-
LAKESHORE

STATION/POSITION TIME  TEMP    WIND        PRES    VSBY  WAVE
                       AIR SEA DIR/SP/G                  HT/PER
                 (UTC) (F)     (DEG/KT/KT) (MB)    (MI)  (FT/S)
SHEBOYGAN LKSHOR 1900   53     120/  4/  5 1021.4R
KEWAUNEE LKSHORE 1900   53      40/  8/ 10 1020.3R
NORTHPORT PIER   1900   55     140/  3/  4 1021.3R
SISTER BAY LKSHO 1900   66      20/ 14/ 17   N/A
CHAMBERS ISLAND  1900   59      60/ 11/ 14 1021.0R
MENOMINEE LKSHOR 1900   56      60/  9/ 11 1021.3R
$$



USA.gov is the U.S. government's official web portal to all federal, state and local government web resources and services.